This is the latest recevied weather packets stored in our database for station/object HB9HFD-13. If no packets are shown the sender has not sent any weather packets the latest 10 day(s).
| Time | Temp. | Humidity | Pressure | Rain* | Wind** | Luminosity | Snow |
|---|---|---|---|---|---|---|---|
| 1787389472 | 20° C | 65% | 1017.6 hPa | 0 mm | - | - | - |
| 1787389172 | 20° C | 65% | 1017.5 hPa | 0 mm | - | - | - |
| 1787388871 | 19.44° C | 66% | 1017.4 hPa | 0 mm | - | - | - |
| 1787388571 | 19.44° C | 65% | 1017.3 hPa | 0 mm | - | - | - |
| 1787388271 | 19.44° C | 69% | 1017.3 hPa | 0 mm | - | - | - |
| 1787387971 | 18.89° C | 67% | 1017.4 hPa | 0 mm | - | - | - |
| 1787387670 | 18.89° C | 69% | 1017.4 hPa | 0 mm | - | - | - |
| 1787387370 | 18.89° C | 75% | 1017.4 hPa | 0 mm | - | - | - |
| 1787387070 | 18.33° C | 72% | 1017.4 hPa | 0 mm | - | - | - |
| 1787386770 | 18.33° C | 74% | 1017.4 hPa | 0 mm | - | - | - |
| 1787386469 | 17.78° C | 77% | 1017.3 hPa | 0 mm | - | - | - |
| 1787386169 | 17.78° C | 78% | 1017.4 hPa | 0 mm | - | - | - |
| 1787385869 | 17.22° C | 80% | 1017.4 hPa | 0 mm | - | - | - |
| 1787385568 | 17.22° C | 80% | 1017.3 hPa | 0 mm | - | - | - |
| 1787385268 | 16.67° C | 82% | 1017.4 hPa | 0 mm | - | - | - |
| 1787384968 | 16.67° C | 82% | 1017.3 hPa | 0 mm | - | - | - |
| 1787384668 | 16.67° C | 82% | 1017.3 hPa | 0 mm | - | - | - |
| 1787384367 | 16.11° C | 83% | 1017.4 hPa | 0 mm | - | - | - |
| 1787384067 | 16.11° C | 83% | 1017.2 hPa | 0 mm | - | - | - |
| 1787383767 | 16.11° C | 83% | 1017.2 hPa | 0 mm | - | - | - |
| 1787383467 | 15.56° C | 83% | 1017.2 hPa | 0 mm | - | - | - |
| 1787383166 | 15.56° C | 85% | 1017.1 hPa | 0 mm | - | - | - |
| 1787382866 | 15.56° C | 86% | 1017 hPa | 0 mm | - | - | - |
| 1787382566 | 15° C | 85% | 1017 hPa | 0 mm | - | - | - |
| 1787382265 | 15° C | 86% | 1017 hPa | 0 mm | - | - | - |
* Rain latest hour (hover to see other rain measurements)
** Current wind speed in m/s (hover to see current wind gust speed)